TAM3836 SBGR-SBSR

Flight info

Callsign TAM3836
Flight time N/A
Altitude 34000
Route GERTU UL201 UPONA
Aircraft A320/M-SDE3FGHIRWY/LB1

Departure

Time N/A
Airport São Paulo/Guarulhos–Governor André Franco Montoro International Airport (SBGR)

Arrival

Time 2026-05-03 20:46
Airport Prof. Eribelto Manoel Reino State Airport (SBSR)
Time Latitude Longitude Altitude Speed Heading
2026-05-03 20:15 -22.74572 -47.14165 29499 ft 367 kts 304°
2026-05-03 20:15 -22.72981 -47.16292 29806 ft 370 kts 304°
2026-05-03 20:15 -22.71356 -47.18462 30115 ft 372 kts 304°
2026-05-03 20:15 -22.69724 -47.20644 30435 ft 374 kts 304°
2026-05-03 20:16 -22.68082 -47.22838 30726 ft 376 kts 304°
2026-05-03 20:16 -22.66431 -47.25045 30997 ft 378 kts 304°
2026-05-03 20:16 -22.64768 -47.27266 31290 ft 380 kts 304°
2026-05-03 20:16 -22.63096 -47.29496 31563 ft 382 kts 304°
2026-05-03 20:17 -22.61415 -47.31739 31832 ft 385 kts 304°
2026-05-03 20:17 -22.59725 -47.33993 32111 ft 386 kts 304°
2026-05-03 20:17 -22.58054 -47.36220 32442 ft 386 kts 304°
2026-05-03 20:17 -22.56361 -47.38476 32742 ft 387 kts 304°
2026-05-03 20:18 -22.54659 -47.40743 33006 ft 388 kts 304°
2026-05-03 20:18 -22.52956 -47.43013 33304 ft 389 kts 304°
2026-05-03 20:18 -22.51246 -47.45288 33603 ft 390 kts 304°
2026-05-03 20:18 -22.49535 -47.47564 33876 ft 391 kts 304°
2026-05-03 20:19 -22.47816 -47.49852 34103 ft 393 kts 304°
2026-05-03 20:19 -22.44383 -47.54413 34133 ft 393 kts 304°
2026-05-03 20:20 -22.40678 -47.58809 34137 ft 396 kts 308°
2026-05-03 20:20 -22.36837 -47.63099 34138 ft 397 kts 308°
2026-05-03 20:21 -22.32991 -47.67394 34139 ft 397 kts 309°
2026-05-03 20:21 -22.29142 -47.71685 34143 ft 397 kts 309°
2026-05-03 20:22 -22.25322 -47.75943 34143 ft 398 kts 309°
2026-05-03 20:22 -22.21466 -47.80238 34141 ft 398 kts 309°
2026-05-03 20:23 -22.17599 -47.84537 34145 ft 399 kts 308°
2026-05-03 20:23 -22.13737 -47.88831 34142 ft 398 kts 309°
2026-05-03 20:24 -22.09874 -47.93124 34145 ft 398 kts 309°
2026-05-03 20:24 -22.06016 -47.97406 34140 ft 398 kts 309°
2026-05-03 20:25 -22.02178 -48.01662 34140 ft 399 kts 309°
2026-05-03 20:25 -21.98300 -48.05957 34138 ft 399 kts 309°
2026-05-03 20:26 -21.94420 -48.10258 34132 ft 400 kts 309°
2026-05-03 20:26 -21.90566 -48.14524 34111 ft 395 kts 309°
2026-05-03 20:26 -21.88641 -48.16649 33772 ft 389 kts 309°
2026-05-03 20:27 -21.86771 -48.18717 32993 ft 391 kts 309°
2026-05-03 20:27 -21.84855 -48.20835 32147 ft 396 kts 309°
2026-05-03 20:27 -21.82921 -48.22964 31330 ft 399 kts 309°
2026-05-03 20:27 -21.80980 -48.25102 30527 ft 401 kts 309°
2026-05-03 20:28 -21.79030 -48.27249 29845 ft 400 kts 309°
2026-05-03 20:28 -21.77097 -48.29376 29345 ft 395 kts 309°
2026-05-03 20:28 -21.75215 -48.31446 28825 ft 391 kts 309°
2026-05-03 20:28 -21.73323 -48.33527 28253 ft 388 kts 309°
2026-05-03 20:29 -21.71444 -48.35597 27653 ft 386 kts 309°
2026-05-03 20:29 -21.69571 -48.37658 27057 ft 384 kts 309°
2026-05-03 20:29 -21.67709 -48.39708 26480 ft 382 kts 309°
2026-05-03 20:29 -21.65855 -48.41748 25879 ft 381 kts 309°
2026-05-03 20:30 -21.64007 -48.43780 25285 ft 379 kts 309°
2026-05-03 20:30 -21.62167 -48.45803 24697 ft 378 kts 309°
2026-05-03 20:30 -21.60335 -48.47816 24109 ft 376 kts 309°
2026-05-03 20:30 -21.58506 -48.49823 23526 ft 375 kts 309°
2026-05-03 20:31 -21.56685 -48.51823 22965 ft 374 kts 309°
2026-05-03 20:31 -21.54897 -48.53786 22414 ft 372 kts 310°
2026-05-03 20:31 -21.53088 -48.55772 21867 ft 371 kts 310°
2026-05-03 20:31 -21.51285 -48.57750 21317 ft 370 kts 310°
2026-05-03 20:32 -21.49488 -48.59723 20791 ft 369 kts 310°
2026-05-03 20:32 -21.47694 -48.61688 20288 ft 368 kts 310°
2026-05-03 20:32 -21.45909 -48.63642 19792 ft 366 kts 310°
2026-05-03 20:32 -21.44134 -48.65585 19285 ft 365 kts 311°
2026-05-03 20:33 -21.42347 -48.67542 18778 ft 364 kts 311°
2026-05-03 20:33 -21.40565 -48.69494 18277 ft 363 kts 311°
2026-05-03 20:33 -21.38797 -48.71428 17781 ft 362 kts 311°
2026-05-03 20:33 -21.37034 -48.73356 17298 ft 362 kts 312°
2026-05-03 20:34 -21.35299 -48.75253 16849 ft 360 kts 312°
2026-05-03 20:34 -21.33549 -48.77165 16416 ft 358 kts 312°
2026-05-03 20:34 -21.31811 -48.79064 15998 ft 355 kts 313°
2026-05-03 20:34 -21.30086 -48.80949 15578 ft 353 kts 313°
2026-05-03 20:35 -21.28372 -48.82820 15146 ft 350 kts 313°
2026-05-03 20:35 -21.26670 -48.84678 14713 ft 348 kts 313°
2026-05-03 20:35 -21.24977 -48.86523 14297 ft 346 kts 313°
2026-05-03 20:35 -21.23296 -48.88357 13885 ft 344 kts 314°
2026-05-03 20:36 -21.21631 -48.90186 13456 ft 342 kts 313°
2026-05-03 20:36 -21.20074 -48.92097 13040 ft 339 kts 309°
2026-05-03 20:36 -21.18586 -48.94053 12632 ft 337 kts 309°
2026-05-03 20:36 -21.17113 -48.96002 12210 ft 336 kts 309°
2026-05-03 20:37 -21.15666 -48.97918 11784 ft 335 kts 309°
2026-05-03 20:37 -21.14207 -48.99850 11461 ft 330 kts 309°
2026-05-03 20:37 -21.12782 -49.01735 11311 ft 320 kts 309°
2026-05-03 20:37 -21.11400 -49.03565 11150 ft 311 kts 310°
2026-05-03 20:38 -21.10056 -49.05340 10987 ft 302 kts 310°
2026-05-03 20:38 -21.08746 -49.07071 10760 ft 295 kts 310°
2026-05-03 20:38 -21.07459 -49.08771 10306 ft 293 kts 310°
2026-05-03 20:38 -21.06175 -49.10464 9795 ft 293 kts 310°
2026-05-03 20:39 -21.04894 -49.12154 9291 ft 292 kts 310°
2026-05-03 20:39 -21.03618 -49.13837 8791 ft 291 kts 310°
2026-05-03 20:39 -21.02343 -49.15518 8288 ft 290 kts 310°
2026-05-03 20:39 -21.01073 -49.17192 7777 ft 289 kts 310°
2026-05-03 20:40 -20.99824 -49.18838 7239 ft 287 kts 310°
2026-05-03 20:40 -20.98567 -49.20495 6614 ft 288 kts 310°
2026-05-03 20:40 -20.97308 -49.22153 5986 ft 287 kts 311°
2026-05-03 20:40 -20.96049 -49.23803 5369 ft 286 kts 311°
2026-05-03 20:41 -20.94796 -49.25446 4864 ft 281 kts 310°
2026-05-03 20:41 -20.93584 -49.27037 4661 ft 271 kts 310°
2026-05-03 20:41 -20.92411 -49.28581 4506 ft 263 kts 310°
2026-05-03 20:41 -20.91281 -49.30068 4315 ft 252 kts 310°
2026-05-03 20:42 -20.90198 -49.31492 4118 ft 240 kts 310°
2026-05-03 20:42 -20.89163 -49.32856 3918 ft 230 kts 310°
2026-05-03 20:42 -20.88178 -49.34155 3808 ft 218 kts 310°
2026-05-03 20:42 -20.87254 -49.35372 3735 ft 204 kts 310°
2026-05-03 20:43 -20.86397 -49.36538 3590 ft 194 kts 303°
2026-05-03 20:43 -20.86115 -49.37878 3388 ft 182 kts 261°
2026-05-03 20:43 -20.86419 -49.39136 3251 ft 169 kts 246°
2026-05-03 20:43 -20.86916 -49.40256 3076 ft 166 kts 241°
2026-05-03 20:44 -20.87315 -49.41392 2991 ft 167 kts 258°
2026-05-03 20:44 -20.87206 -49.42594 2938 ft 159 kts 294°
2026-05-03 20:44 -20.86526 -49.43480 2836 ft 153 kts 321°
2026-05-03 20:44 -20.85665 -49.44130 2649 ft 149 kts 340°
2026-05-03 20:45 -20.84669 -49.44250 2488 ft 142 kts 17°
2026-05-03 20:45 -20.83872 -49.43689 2296 ft 139 kts 54°
2026-05-03 20:45 -20.83304 -49.42862 2103 ft 137 kts 56°
2026-05-03 20:45 -20.82720 -49.42046 1961 ft 137 kts 54°
2026-05-03 20:46 -20.82119 -49.41239 1790 ft 139 kts 53°
2026-05-03 20:46 -20.81628 -49.40583 1753 ft 73 kts 50°
2026-05-03 20:46 -20.81461 -49.40361 1748 ft 15 kts 51°
2026-05-03 20:46 -20.81414 -49.40311 1747 ft 5 kts 17°
2026-05-03 20:47 -20.81382 -49.40313 1747 ft 4 kts 351°
2026-05-03 20:47 -20.81350 -49.40321 1747 ft 4 kts 329°
2026-05-03 20:47 -20.81324 -49.40342 1747 ft 4 kts 321°
2026-05-03 20:47 -20.81299 -49.40362 1747 ft 4 kts 321°
2026-05-03 20:48 -20.81274 -49.40384 1747 ft 4 kts 321°
2026-05-03 20:48 -20.81263 -49.40393 1747 ft 0 kts 321°